Meath Environmental Platform

Observations

Time Sensor AQI SAQ Temp °C Hum % Pres Pa CO μg/m³ H₂S μg/m³ NO μg/m³ NO₂ μg/m³ O₃ μg/m³ SO₂ μg/m³ CO₂e PPM VOC PPM PM1 μg/m³ PM2.5 μg/m³ PM4 μg/m³ PM10 μg/m³ TPS µm
Tuesday 11 August 2026
13:28 Trim Patrick St 2 31.2 30 69,336 0 8.08 1.05 16.35 75.93 15.85 2.86 8.47 9.31
13:28 Trim Market St 2 38.1 21 66,839 0 17.48 0.15 17.42 92.97 4.91 0.71 4.26 4.68
13:27 Trim Patrick St 2 31.2 30 69,343 0 15.46 1 27.22 99.24 17.72 2 8.45 9.3
13:26 Trim Patrick St 2 31.1 30 69,302 0 10.69 1.08 15.69 98.87 16.95 2.86 8.48 9.33
13:26 Trim Market St 2 38.2 20 66,841 0 17.72 0.2 19.13 106.44 4.87 0 3.72 4.09
13:25 Trim Patrick St 2 31.1 30 69,306 0 12.03 1.09 18.44 76 16.68 2 8.51 9.36
13:25 Trim Market St 2 38.3 20 66,869 0 6.13 0.23 15.45 97.73 5.26 0 3.17 3.49
13:24 Trim Patrick St 2 31.2 30 69,310 0 10.49 1.03 22.41 100.73 17.83 2 7.69 8.46
13:24 Trim Market St 2 38.5 20 66,874 0 0 0.25 14.9 105.71 5.04 0 3.73 4.11
13:23 Trim Patrick St 2 31.3 29 69,316 0 11.05 1.01 15.46 89.76 18.14 2 7.71 8.48
13:23 Trim Market St 2 38.7 20 66,908 0 0 0.26 14.91 75.83 5.2 0 4.3 4.74
13:22 Trim Market St 2 38.9 20 66,916 0 8.96 0.23 18.01 72.69 4.55 0 3.75 4.13
13:21 Trim Patrick St 2 31.5 29 69,332 0 15.03 0.94 14.39 112.09 18.99 2 8.52 9.37
13:20 Trim Patrick St 2 31.6 29 69,316 0 12.66 1.01 34.7 100.72 17.86 2.86 8.55 9.41
13:20 Trim Market St 2 39.3 20 66,912 0 0 0.12 14.79 73.96 5.01 0.71 3.76 4.13
13:19 Trim Patrick St 2 31.7 29 69,320 0 4.75 0.97 12.85 70.92 17.78 2 7.73 8.5
13:19 Trim Market St 2 39.5 20 66,947 0 0 0.1 14.71 91.05 4.63 0 3.2 3.52
13:15 Trim Patrick St 2 31.7 30 69,318 0 14.05 0.92 14.72 114.11 18.66 2 8.48 9.33
13:14 Trim Market St 2 39.4 20 66,943 0 0.05 0.14 17.14 82.53 3.95 0 3.75 4.13
13:13 Trim Patrick St 1 31.6 30 69,349 0 5.6 0.93 13.98 86.38 16.76 2.86 9.27 10.2